カタログに戻る

YAOGAN-31 M

運用中軍事LEO
NORAD 47857·PAYLOAD·🇨🇳 China

打ち上げ Mar 13, 2021 から Jiuquan Satellite Launch Center

Loading…

次のパス (今後24時間)

TLE

最新Source: Space-Track

元期: Sep 14, 2026, 22:38 UTC

1 47857U 21020D   26257.94374080 -.00000016  00000-0  11254-3 0  9997
2 47857  63.4076  27.4168 0182435   0.7370 359.3891 13.45452095270530

AllMySatでYAOGAN-31 Mをリアルタイム追跡

Download on the App Store